Tracking 28794 objects as of 22-Apr-2024
HD Live streaming from Space Station
objects crossing your sky now

OBJECT E

Track OBJECT E now!
10-day predictions
OBJECT E is classified as:


NORAD ID: 53109
Int'l Code: 2022-080E
Perigee: 5,841.0 km
Apogee: 5,859.5 km
Inclination: 70.1 °
Period: 224.1 minutes
Semi major axis: 12221 km
RCS: Unknown
Launch date: July 13, 2022
Source: (TBD)
Launch site: FRENCH GUIANA (FRGUI)

Uplink (MHz):
Downlink (MHz): 436.750
Beacon (MHz):
Mode: 1k2AFSK 2k4*/9k6GMSK
Call sign:
Status: Inactive


Uplink (MHz):
Downlink (MHz): 436.750
Beacon (MHz):
Mode: 1k2AFSK 2k4*/9k6GMSK
Call sign: FX6FRA
Status: Inactive

Your satellite tracking list
Your tracking list is empty




NASA's NSSDC Master Catalog

Two Line Element Set (TLE):
1 53109U 22080E   24112.28735164 -.00000003  00000-0  00000-0 0  9990
2 53109  70.1282 211.9011 0007575 100.2932 259.8582  6.42584145 41504
Source of the keplerian elements: AFSPC